• In Hungary
  • List of Countries
  • For 7 days
  • Water Temperature
  • Satellite Maps
  • Weather Map
  • News
  • Weather Widgets
  • user-avatar
    Login

    Hourly Weather Ivkovichi

    Today, 16 July, Monday

    Time Temperature Precipitation Wind Pressure Humidity
    00:00 +20°C° 1.5 mm 3 mps 740 mmHg 90%
    01:00 +20°C° 0.9 mm 3 mps 740 mmHg 91%
    02:00 +19°C° 0.9 mm 3 mps 740 mmHg 93%
    03:00 +19°C° 0 mm 2 mps 740 mmHg 95%
    04:00 +19°C° 0.3 mm 3 mps 740 mmHg 95%
    05:00 +19°C° 0.3 mm 3 mps 740 mmHg 94%
    06:00 +20°C° 0.3 mm 3 mps 740 mmHg 94%
    07:00 +21°C° 0.2 mm 4 mps 740 mmHg 91%
    08:00 +22°C° 0.2 mm 4 mps 740 mmHg 87%
    09:00 +25°C° 0 mm 4 mps 740 mmHg 81%
    10:00 +26°C° 0.9 mm 4 mps 740 mmHg 76%
    11:00 +27°C° 0.9 mm 4 mps 740 mmHg 72%
    12:00 +28°C° 0.9 mm 4 mps 740 mmHg 67%
    13:00 +29°C° 0.3 mm 5 mps 739 mmHg 64%
    14:00 +30°C° 0.3 mm 4 mps 739 mmHg 62%
    15:00 +30°C° 0.3 mm 4 mps 739 mmHg 60%
    16:00 +29°C° 0.3 mm 4 mps 739 mmHg 64%
    17:00 +29°C° 0.3 mm 3 mps 739 mmHg 68%
    18:00 +28°C° 0.3 mm 3 mps 738 mmHg 72%
    19:00 +27°C° 0.6 mm 3 mps 738 mmHg 75%
    20:00 +26°C° 0.6 mm 3 mps 738 mmHg 78%
    21:00 +23°C° 0.6 mm 4 mps 738 mmHg 80%
    22:00 +23°C° 0.3 mm 4 mps 738 mmHg 84%
    23:00 +22°C° 0.3 mm 4 mps 738 mmHg 87%

    Tomorrow, 17 July, Tuesday

    Time Temperature Precipitation Wind Pressure Humidity
    00:00 +21°C° 0.3 mm 3 mps 738 mmHg 90%
    01:00 +21°C° 0.1 mm 3 mps 738 mmHg 92%
    02:00 +20°C° 0.1 mm 3 mps 738 mmHg 93%
    03:00 +20°C° 0.1 mm 4 mps 738 mmHg 95%
    04:00 +20°C° 0 mm 4 mps 738 mmHg 94%
    05:00 +20°C° 0 mm 4 mps 738 mmHg 94%
    06:00 +21°C° 0 mm 4 mps 738 mmHg 93%
    07:00 +22°C° 0 mm 5 mps 738 mmHg 88%
    08:00 +25°C° 0 mm 5 mps 737 mmHg 83%
    09:00 +26°C° 0 mm 6 mps 737 mmHg 78%
    10:00 +27°C° 0.3 mm 6 mps 737 mmHg 75%
    11:00 +28°C° 0.3 mm 6 mps 737 mmHg 72%
    12:00 +28°C° 0.3 mm 6 mps 737 mmHg 69%
    13:00 +28°C° 0.7 mm 6 mps 737 mmHg 70%
    14:00 +28°C° 0.7 mm 6 mps 736 mmHg 72%
    15:00 +28°C° 0.7 mm 6 mps 736 mmHg 73%
    16:00 +28°C° 0.6 mm 5 mps 736 mmHg 75%
    17:00 +27°C° 0.6 mm 5 mps 736 mmHg 77%
    18:00 +27°C° 0.6 mm 4 mps 736 mmHg 79%
    19:00 +25°C° 0.3 mm 4 mps 736 mmHg 83%
    20:00 +23°C° 0.3 mm 4 mps 736 mmHg 86%
    21:00 +22°C° 0.3 mm 4 mps 736 mmHg 90%
    22:00 +21°C° 0 mm 4 mps 736 mmHg 91%
    23:00 +21°C° 0 mm 4 mps 735 mmHg 93%

    Day after tomorrow, 18 July, Wednesday

    Time Temperature Precipitation Wind Pressure Humidity
    00:00 +20°C° 0 mm 4 mps 735 mmHg 95%
    01:00 +20°C° 0 mm 4 mps 735 mmHg 95%
    02:00 +20°C° 0 mm 4 mps 735 mmHg 96%
    03:00 +20°C° 0 mm 5 mps 735 mmHg 96%
    04:00 +20°C° 0.1 mm 5 mps 735 mmHg 95%
    05:00 +20°C° 0.1 mm 6 mps 734 mmHg 94%
    06:00 +19°C° 0.1 mm 6 mps 734 mmHg 94%
    07:00 +20°C° 0.2 mm 6 mps 734 mmHg 94%
    08:00 +20°C° 0.2 mm 6 mps 734 mmHg 94%
    09:00 +20°C° 0.2 mm 6 mps 734 mmHg 94%
    10:00 +20°C° 0.3 mm 6 mps 734 mmHg 92%
    11:00 +21°C° 0.3 mm 6 mps 734 mmHg 90%
    12:00 +21°C° 0.3 mm 5 mps 734 mmHg 89%
    13:00 +21°C° 0.2 mm 5 mps 734 mmHg 86%
    14:00 +22°C° 0.2 mm 5 mps 733 mmHg 83%
    15:00 +23°C° 0.2 mm 5 mps 733 mmHg 80%
    16:00 +23°C° 0.3 mm 5 mps 733 mmHg 81%
    17:00 +23°C° 0.3 mm 5 mps 733 mmHg 82%
    18:00 +23°C° 0.3 mm 5 mps 733 mmHg 83%
    19:00 +21°C° 0.2 mm 4 mps 733 mmHg 87%
    20:00 +20°C° 0.2 mm 4 mps 733 mmHg 90%
    21:00 +19°C° 0.2 mm 4 mps 733 mmHg 94%
    22:00 +19°C° 0.1 mm 4 mps 733 mmHg 95%
    23:00 +19°C° 0.1 mm 4 mps 733 mmHg 96%

    19 July, Thursday

    Time Temperature Precipitation Wind Pressure Humidity
    00:00 +19°C° 0.1 mm 4 mps 733 mmHg 97%
    01:00 +19°C° 0.2 mm 4 mps 733 mmHg 97%
    02:00 +19°C° 0.2 mm 4 mps 734 mmHg 97%
    03:00 +19°C° 0.2 mm 4 mps 734 mmHg 97%
    04:00 +19°C° 0.4 mm 4 mps 734 mmHg 97%
    05:00 +19°C° 0.4 mm 4 mps 734 mmHg 97%
    06:00 +19°C° 0.4 mm 4 mps 734 mmHg 97%
    07:00 +19°C° 0.4 mm 4 mps 734 mmHg 96%
    08:00 +19°C° 0.4 mm 4 mps 734 mmHg 96%
    09:00 +19°C° 0.4 mm 4 mps 734 mmHg 95%
    10:00 +20°C° 0.6 mm 4 mps 734 mmHg 92%
    11:00 +21°C° 0.6 mm 4 mps 735 mmHg 90%
    12:00 +22°C° 0.6 mm 4 mps 735 mmHg 87%
    13:00 +22°C° 0.9 mm 3 mps 735 mmHg 85%
    14:00 +24°C° 0.9 mm 3 mps 735 mmHg 84%
    15:00 +25°C° 0.9 mm 3 mps 735 mmHg 82%
    16:00 +25°C° 1.1 mm 3 mps 735 mmHg 83%
    17:00 +25°C° 1.1 mm 3 mps 735 mmHg 83%
    18:00 +25°C° 1.1 mm 3 mps 735 mmHg 84%
    19:00 +24°C° 0.4 mm 2 mps 735 mmHg 87%
    20:00 +23°C° 0.4 mm 2 mps 735 mmHg 90%
    21:00 +21°C° 0.4 mm 2 mps 736 mmHg 94%
    22:00 +20°C° 0 mm 2 mps 736 mmHg 94%
    23:00 +20°C° 0 mm 2 mps 736 mmHg 95%

    20 July, Friday

    Time Temperature Precipitation Wind Pressure Humidity
    00:00 +20°C° 0 mm 2 mps 736 mmHg 96%
    01:00 +19°C° 0 mm 2 mps 736 mmHg 96%
    02:00 +19°C° 0 mm 2 mps 736 mmHg 96%
    03:00 +19°C° 0 mm 2 mps 736 mmHg 97%
    04:00 +19°C° 0 mm 2 mps 737 mmHg 96%
    05:00 +20°C° 0 mm 2 mps 737 mmHg 96%
    06:00 +20°C° 0 mm 3 mps 737 mmHg 96%
    07:00 +21°C° 0 mm 3 mps 737 mmHg 91%
    08:00 +22°C° 0 mm 3 mps 738 mmHg 87%
    09:00 +25°C° 0 mm 4 mps 738 mmHg 83%
    10:00 +26°C° 0.1 mm 4 mps 738 mmHg 79%
    11:00 +27°C° 0.1 mm 4 mps 738 mmHg 74%
    12:00 +28°C° 0.1 mm 4 mps 738 mmHg 70%
    13:00 +28°C° 0.1 mm 4 mps 738 mmHg 68%
    14:00 +29°C° 0.1 mm 4 mps 738 mmHg 67%
    15:00 +29°C° 0.1 mm 5 mps 738 mmHg 65%
    16:00 +29°C° 0.3 mm 4 mps 738 mmHg 68%
    17:00 +28°C° 0.3 mm 4 mps 738 mmHg 72%
    18:00 +28°C° 0.3 mm 3 mps 738 mmHg 76%
    19:00 +26°C° 0.2 mm 3 mps 738 mmHg 80%
    20:00 +25°C° 0.2 mm 3 mps 738 mmHg 84%
    21:00 +23°C° 0.2 mm 2 mps 738 mmHg 89%
    22:00 +23°C° 0 mm 2 mps 738 mmHg 90%
    23:00 +21°C° 0 mm 2 mps 738 mmHg 92%

    21 July, Saturday

    Time Temperature Precipitation Wind Pressure Humidity
    00:00 +20°C° 0 mm 2 mps 738 mmHg 93%
    01:00 +20°C° 0 mm 2 mps 738 mmHg 94%
    02:00 +20°C° 0 mm 2 mps 738 mmHg 95%
    03:00 +19°C° 0 mm 2 mps 739 mmHg 96%
    04:00 +20°C° 0 mm 2 mps 739 mmHg 95%
    05:00 +20°C° 0 mm 2 mps 739 mmHg 95%
    06:00 +20°C° 0 mm 3 mps 739 mmHg 94%
    07:00 +21°C° 0 mm 3 mps 739 mmHg 89%
    08:00 +24°C° 0 mm 3 mps 739 mmHg 84%
    09:00 +26°C° 0 mm 4 mps 739 mmHg 78%
    10:00 +27°C° 0 mm 4 mps 739 mmHg 74%
    11:00 +28°C° 0 mm 4 mps 739 mmHg 69%
    12:00 +29°C° 0 mm 4 mps 739 mmHg 64%
    13:00 +29°C° 0.4 mm 4 mps 738 mmHg 63%
    14:00 +29°C° 0.4 mm 5 mps 738 mmHg 63%
    15:00 +29°C° 0.4 mm 5 mps 738 mmHg 63%
    16:00 +28°C° 0.5 mm 5 mps 738 mmHg 67%
    17:00 +28°C° 0.5 mm 4 mps 738 mmHg 71%
    18:00 +27°C° 0.5 mm 4 mps 738 mmHg 74%
    19:00 +26°C° 0.2 mm 3 mps 738 mmHg 79%
    20:00 +24°C° 0.2 mm 3 mps 738 mmHg 84%
    21:00 +22°C° 0.2 mm 3 mps 738 mmHg 88%
    22:00 +21°C° 0 mm 3 mps 738 mmHg 89%
    23:00 +21°C° 0 mm 2 mps 738 mmHg 90%
    Show more